Location: Saint-Palais-sur-Mer
(45.6429°N, 1.0859°W)
Time: 23:49:39
(UTC+01:00)

Vanguard 1 - Pass Details

Date: 16 February 2026
Orbit: 653 x 3818 km, 34.2° (Epoch: 12 March)

Event Time Altitude Azimuth Distance (km) Brightness Sun altitude
Rises 20:17:31 0° 267° (W) 6,024 15.8 -18.9°
Reaches altitude 10° 20:20:59 10° 263° (W) 5,362 15.0 -19.5°
Maximum altitude 20:37:54 55° 193° (SSW) 4,007 13.1 -22.5°
Enters shadow 20:54:33 22° 129° (SE) 5,907 13.5 -25.4°
